Location: ??????
(38.0131°N, 23.7723°E)
Time: 01:28:39
(UTC+00:00)

CZ-2C R/B - Pass Details

Date: 17 October 2021
Orbit: 784 x 871 km, 98.2° (Epoch: 04 December)

Event Time Altitude Azimuth Distance (km) Brightness Sun altitude
Rises 17:30:50 0° 2° (N) 3,466 5.9 -21.7°
Reaches altitude 10° 17:33:27 10° 353° (N) 2,522 5.3 -22.2°
Maximum altitude 17:38:22 33° 292° (WNW) 1,427 4.5 -23.2°
Drops below altitude 10° 17:43:14 10° 230° (SW) 2,480 5.7 -24.1°
Sets 17:45:47 0° 221° (SW) 3,400 6.3 -24.6°
